This is the latest recevied weather packets stored in our database for station/object KR4CWL-13. If no packets are shown the sender has not sent any weather packets the latest 10 day(s).
| Time | Temp. | Humidity | Pressure | Rain* | Wind** | Luminosity | Snow |
|---|---|---|---|---|---|---|---|
| 1777778640 | 7.78° C | 93% | 1007.4 hPa | 0 mm | - | - | - |
| 1777778040 | 7.22° C | 96% | 1007.4 hPa | 0 mm | - | - | - |
| 1777777440 | 7.22° C | 98% | 1007.4 hPa | 0 mm | - | - | - |
| 1777776840 | 6.67° C | 99% | 1007.4 hPa | 0 mm | - | - | - |
| 1777776239 | 6.67° C | 99% | 1007.1 hPa | 0 mm | - | - | - |
| 1777775639 | 7.22° C | 98% | 1007.1 hPa | 0 mm | - | - | - |
| 1777775039 | 7.22° C | 97% | 1006.8 hPa | 0 mm | - | - | - |
| 1777774439 | 7.22° C | 95% | 1006.8 hPa | 0 mm | - | - | - |
| 1777773839 | 7.78° C | 95% | 1006.8 hPa | 0 mm | - | - | - |
| 1777773239 | 7.78° C | 96% | 1006.8 hPa | 0 mm | - | - | - |
| 1777772639 | 7.78° C | 95% | 1006.4 hPa | 0 mm | - | - | - |
| 1777772039 | 7.78° C | 95% | 1006.1 hPa | 0 mm | - | - | - |
| 1777771439 | 8.33° C | 93% | 1006.1 hPa | 0 mm | - | - | - |
| 1777770839 | 8.89° C | 92% | 1006.1 hPa | 0 mm | - | - | - |
| 1777770239 | 9.44° C | 91% | 1006.1 hPa | 0 mm | - | - | - |
| 1777769639 | 9.44° C | 90% | 1006.1 hPa | 0 mm | - | - | - |
| 1777769039 | 10° C | 89% | 1005.8 hPa | 0 mm | - | - | - |
| 1777768439 | 10° C | 88% | 1005.4 hPa | 0 mm | - | - | - |
| 1777767839 | 10.56° C | 86% | 1005.4 hPa | 0 mm | - | - | - |
| 1777767239 | 11.11° C | 87% | 1005.4 hPa | 0 mm | - | - | - |
| 1777766639 | 11.67° C | 83% | 1005.4 hPa | 0 mm | - | - | - |
| 1777766039 | 11.67° C | 80% | 1005.1 hPa | 0 mm | - | - | - |
| 1777765439 | 12.22° C | 77% | 1005.1 hPa | 0 mm | - | - | - |
| 1777764839 | 12.78° C | 73% | 1004.7 hPa | 0 mm | - | - | - |
| 1777764239 | 13.33° C | 69% | 1004.7 hPa | 0 mm | - | - | - |
* Rain since midnight (hover to see other rain measurements)
** Current wind speed in m/s (hover to see current wind gust speed)